GS0511 Weather Reports


time (UTC)temp
C
wind
direction
speed
KPH
gust
KPH
rain 1hr
cm
rain 24hr
cm
rain mn
cm
humidity
%
barometer
mb
20260506224501 9 12 0.0 3.2 0.08 2.64 2.08 91 1011.1
20260506223000 9 117 1.6 3.2 0.00 2.57 2.01 89 1010.9
20260506221501 10 117 0.0 0.0 0.00 2.57 2.01 86 1010.9
20260506220006 10 117 0.0 4.8 0.00 2.57 2.01 84 1010.7
20260506214501 10 117 1.6 6.4 0.00 2.72 2.01 84 1010.6
20260506213000 10 171 3.2 4.8 0.00 2.72 2.01 83 1010.6
20260506210003 10 87 1.6 4.8 0.00 2.72 2.01 84 1010.8
20260506203000 9 99 1.6 4.8 0.00 2.72 2.01 84 1011.1
20260506200003 9 207 1.6 6.4 0.00 2.72 2.01 83 1010.8
20260506194500 9 181 3.2 8.0 0.00 2.72 2.01 83 1011.0
20260506193000 9 274 1.6 6.4 0.00 2.72 2.01 84 1010.9
20260506191500 8 327 1.6 4.8 0.00 2.72 2.01 85 1010.9
20260506190004 8 327 1.6 4.8 0.00 2.72 2.01 85 1011.1
20260506184500 8 308 3.2 4.8 0.00 2.72 2.01 87 1011.2
20260506183000 8 5 1.6 4.8 0.00 2.72 2.01 88 1011.2
20260506181501 8 346 3.2 8.0 0.03 2.72 2.01 87 1011.1
20260506180005 8 21 3.2 6.4 0.03 2.72 2.01 87 1011.3
20260506174500 8 18 3.2 6.4 0.03 2.72 2.01 89 1011.3
20260506171500 8 309 3.2 8.0 0.00 2.69 1.98 89 1010.6
20260506164502 7 55 1.6 6.4 0.00 2.69 1.98 92 1010.6
20260506163000 7 348 1.6 6.4 0.00 2.69 1.98 93 1010.6
20260506161500 7 319 1.6 6.4 0.00 2.69 1.98 94 1010.6
20260506160002 7 9 3.2 6.4 0.00 2.69 1.98 94 1010.5
20260506153000 7 12 3.2 6.4 0.00 2.69 1.98 94 1010.4
20260506151459 7 13 3.2 6.4 0.00 2.69 1.98 95 1010.2
20260506150005 7 43 1.6 6.4 0.00 2.69 1.98 94 1010.1
20260506144500 6 56 3.2 6.4 0.03 2.69 1.98 95 1010.2
20260506142959 6 86 3.2 9.7 0.03 2.69 1.98 94 1010.1
20260506141459 6 81 3.2 6.4 0.08 2.69 1.98 95 1010.1
20260506140002 6 80 3.2 8.0 0.10 2.69 1.98 95 1010.0
20260506134459 6 29 1.6 6.4 0.10 2.67 1.96 95 1009.9
20260506132959 6 77 4.8 8.0 0.13 2.67 1.96 95 1010.0
20260506131459 6 155 3.2 8.0 0.10 2.62 1.91 95 1009.8
20260506130005 6 78 3.2 6.4 0.08 2.59 1.88 95 1009.8
20260506124501 6 77 3.2 6.4 0.08 2.57 1.85 95 1009.8
20260506122959 6 71 3.2 8.0 0.08 2.54 1.83 96 1009.7
20260506121459 6 92 1.6 6.4 0.10 2.51 1.80 95 1009.6
20260506120005 6 92 4.8 9.7 0.10 2.51 1.80 95 1009.7
20260506114500 6 71 4.8 8.0 0.10 2.49 1.78 95 1009.9
20260506113000 6 109 3.2 8.0 0.13 2.46 1.75 96 1009.7
20260506111459 6 45 3.2 9.7 0.10 2.41 1.70 96 1009.6
20260506110002 6 88 3.2 14.5 0.13 2.39 1.68 96 1009.4
20260506104459 6 13 3.2 8.0 0.15 2.39 1.68 96 1009.1
20260506102959 6 73 3.2 9.7 0.15 2.34 1.63 96 1009.4
20260506101458 6 73 1.6 4.8 0.18 2.31 1.60 96 1009.7
20260506100001 6 55 3.2 8.0 0.13 2.26 1.55 96 1009.6
20260506094459 6 102 3.2 11.3 0.13 2.24 1.52 96 1009.6
20260506092959 6 319 1.6 8.0 0.10 2.18 1.47 96 1009.8
20260506091459 7 40 1.6 11.3 0.10 2.13 1.42 96 1009.4
20260506090001 7 74 1.6 4.8 0.13 2.13 1.42 96 1009.4
20260506084458 7 313 3.2 8.0 0.15 2.11 1.40 96 1009.5
20260506082959 7 27 1.6 6.4 0.20 2.08 1.37 96 1009.6
20260506081458 7 92 3.2 12.9 0.23 2.03 1.32 96 1009.8
20260506072959 7 50 3.2 6.4 0.28 1.91 1.17 96 1009.6
20260506071459 7 17 3.2 8.0 0.25 1.83 1.09 96 1009.5
20260506061458 8 33 3.2 8.0 0.43 1.60 0.84 96 1010.0
20260506044458 8 103 0.0 3.2 0.25 0.99 0.23 96 1010.3
20260506042958 9 103 0.0 4.8 0.20 0.89 0.13 96 1010.1
20260506041459 8 103 1.6 4.8 0.18 0.81 0.05 96 1010.1
20260506040007 8 103 0.0 3.2 0.15 0.76 0.00 96 1010.3
20260506034501 8 103 1.6 4.8 0.13 0.74 0.74 96 1010.5
20260506033004 8 103 1.6 4.8 0.08 0.69 0.69 96 1010.7
20260506031501 8 103 1.6 4.8 0.03 0.64 0.64 96 1010.8
20260506030005 8 103 1.6 4.8 0.00 0.61 0.61 96 1010.9
20260506024502 8 90 0.0 0.0 0.03 0.61 0.61 96 1010.9
20260506021502 8 137 0.0 3.2 0.10 0.61 0.61 95 1011.0
20260506020005 8 137 0.0 3.2 0.13 0.61 0.61 95 1010.9
20260506014501 8 137 0.0 0.0 0.10 0.58 0.58 95 1011.0
20260506011501 8 137 0.0 1.6 0.10 0.51 0.51 95 1011.0
20260506004501 8 137 0.0 0.0 0.10 0.48 0.48 94 1010.2
20260506003001 8 137 1.6 3.2 0.10 0.46 0.46 94 1010.2
20260506001501 8 137 0.0 1.6 0.08 0.41 0.41 93 1010.1
20260505231501 8 306 1.6 4.8 0.10 0.33 0.33 91 1010.0
20260505230004 9 289 1.6 4.8 0.10 0.30 0.30 90 1009.8